STARLINK-2306

Last updated on Sat Apr 24 2021 00:02:02 GMT+0000 (Coordinated Universal Time)

1 47988U 21024M 21113.25001157 .00034320 00000-0 24759-3 0 9996 2 47988 53.0490 55.7039 0001300 83.0593 67.8588 15.73230028 1868
UTC large
Height (km)
Speed (km/s)
/
Latitude / Longitude
Inclination (degrees)
Orbital Period (minutes)
Azimuth
Elevation
Range (km)
Doppler Factor

Next 0 passes for location: London (51.5072 / 0.1276)

Sorry there are no passes over London.